Nebraska City, NE

2:51 PM CDT on July 26, 2017 (GMT -0500)
Nebraska City Municipal

Weather History for KAFK - November, 2012

Change the Weather History Date:

Thursday, November 22, 2012

  Actual Average (KSDA) Record (KSDA)
Temperature  
Mean Temperature 52 °F -  
Max Temperature 64 °F 48 °F 72 °F (1966)
Min Temperature 37 °F 27 °F 9 °F (1956)
Degree Days  
Heating Degree Days 14    
Growing Degree Days 2 (Base 50)    
Moisture  
Dew Point 39 °F    
Average Humidity 60    
Maximum Humidity 79    
Minimum Humidity 35    
Precipitation  
Precipitation 0.00 in - - ()
Sea Level Pressure  
Sea Level Pressure 29.93 in    
Wind  
Wind Speed 14 mph (West)    
Max Wind Speed 25 mph    
Max Gust Speed 34 mph    
Visibility 10 miles    
Events      
Averages and records for this station are not official NWS values.
T = Trace of Precipitation, MM = Missing Value Source: NWS Daily Summary

Daily Weather History Graph

Daily Weather History Graph

Search for Another Location

Airport or City:

Trip Planner

Search our weather history database for the weather conditions in past years. The results will help you decide how hot, cold, wet, or windy it might be!

Date:

Astronomy

Nov. 22, 2012 Rise Set
Actual Time 7:18 AM CST 5:00 PM CST
Civil Twilight 6:48 AM CST 5:30 PM CST
Nautical Twilight 6:15 AM CST 6:03 PM CST
Astronomical Twilight 5:42 AM CST 6:36 PM CST
Moon 1:47 PM CST (11/22) 1:38 AM CST (11/22)
Length of Visible Light 10h 41m
Length of Day
9h 41m
Waxing Gibbous, 71% of the Moon is Illuminated
Nov 22
Waxing Gibbous
Nov 28
Full
Dec 6
Last Quarter
Dec 13
New
Dec 19
First Quarter

Hourly Weather History & Observations

Time (CST) Temp. Windchill Dew Point Humidity Pressure Visibility Wind Dir Wind Speed Gust Speed Precip Events Conditions
12:15 AM 55.6 °F - 41.4 °F 59% 29.84 in 10.0 mi SSW 16.1 mph - N/A   Clear
12:35 AM 56.1 °F - 41.4 °F 58% 29.84 in 10.0 mi South 15.0 mph - N/A   Clear
12:55 AM 55.8 °F - 41.7 °F 59% 29.83 in 10.0 mi South 13.8 mph - N/A   Clear
1:15 AM 56.3 °F - 42.1 °F 59% 29.82 in 10.0 mi South 15.0 mph 20.7 mph N/A   Clear
1:35 AM 56.3 °F - 42.4 °F 60% 29.81 in 10.0 mi SSW 16.1 mph - N/A   Clear
1:55 AM 56.8 °F - 42.6 °F 59% 29.80 in 10.0 mi SSW 17.3 mph 20.7 mph N/A   Clear
2:15 AM 57.0 °F - 42.4 °F 58% 29.80 in 10.0 mi SSW 15.0 mph 20.7 mph N/A   Clear
2:35 AM 56.1 °F - 42.6 °F 61% 29.80 in 10.0 mi SSW 15.0 mph - N/A   Clear
2:55 AM 55.8 °F - 42.8 °F 62% 29.79 in 10.0 mi SSW 15.0 mph 19.6 mph N/A   Clear
3:15 AM 55.4 °F - 42.8 °F 63% 29.79 in 10.0 mi SSW 13.8 mph - N/A   Clear
3:35 AM 55.6 °F - 43.2 °F 63% 29.77 in 10.0 mi South 16.1 mph - N/A   Clear
3:55 AM 55.4 °F - 43.5 °F 64% 29.77 in 10.0 mi SSW 12.7 mph - N/A   Clear
4:15 AM 54.5 °F - 43.7 °F 67% 29.77 in 10.0 mi SSW 10.4 mph - N/A   Clear
4:35 AM 53.8 °F - 43.7 °F 69% 29.77 in 10.0 mi SSW 12.7 mph - N/A   Clear
4:55 AM 53.8 °F - 44.1 °F 70% 29.76 in 10.0 mi SSW 12.7 mph - N/A   Clear
5:15 AM 53.8 °F - 44.4 °F 71% 29.76 in 10.0 mi SSW 12.7 mph - N/A   Clear
5:35 AM 53.1 °F - 44.1 °F 71% 29.76 in 10.0 mi SSW 10.4 mph - N/A   Clear
5:55 AM 51.8 °F - 44.1 °F 75% 29.75 in 10.0 mi SSW 11.5 mph - N/A   Clear
6:15 AM 52.0 °F - 44.2 °F 75% 29.75 in 10.0 mi SSW 10.4 mph - N/A   Clear
6:35 AM 51.3 °F - 44.6 °F 78% 29.75 in 10.0 mi SSW 9.2 mph - N/A   Clear
6:55 AM 50.9 °F - 44.6 °F 79% 29.77 in 10.0 mi SW 8.1 mph - N/A   Clear
7:15 AM 52.2 °F - 45.5 °F 78% 29.77 in 10.0 mi SW 8.1 mph - N/A   Clear
7:35 AM 52.9 °F - 46.2 °F 78% 29.77 in 10.0 mi SW 10.4 mph - N/A   Clear
7:55 AM 53.4 °F - 46.4 °F 77% 29.78 in 10.0 mi SW 10.4 mph - N/A   Clear
8:15 AM 54.1 °F - 47.1 °F 77% 29.78 in 10.0 mi SW 9.2 mph - N/A   Clear
8:35 AM 54.5 °F - 47.5 °F 77% 29.79 in 10.0 mi SW 8.1 mph - N/A   Clear
8:55 AM 55.9 °F - 48.4 °F 76% 29.79 in 10.0 mi SW 10.4 mph - N/A   Clear
9:15 AM 56.3 °F - 48.6 °F 75% 29.79 in 10.0 mi SW 11.5 mph - N/A   Clear
9:35 AM 56.5 °F - 48.9 °F 76% 29.81 in 10.0 mi WSW 8.1 mph - N/A   Clear
9:55 AM 59.2 °F - 49.6 °F 71% 29.81 in 10.0 mi WSW 9.2 mph - N/A   Clear
10:15 AM 60.4 °F - 48.9 °F 66% 29.82 in 10.0 mi West 12.7 mph - N/A   Clear
10:35 AM 60.6 °F - 45.3 °F 57% 29.82 in 10.0 mi West 13.8 mph 17.3 mph N/A   Clear
10:55 AM 61.3 °F - 40.6 °F 47% 29.83 in 10.0 mi WNW 12.7 mph - N/A   Clear
11:15 AM 62.1 °F - 39.4 °F 43% 29.82 in 10.0 mi WNW 3.5 mph - N/A   Clear
11:35 AM 63.9 °F - 35.2 °F 35% 29.83 in 10.0 mi WNW 11.5 mph - N/A   Clear
11:55 AM 64.4 °F - 36.9 °F 36% 29.83 in 10.0 mi NW 12.7 mph - N/A   Clear
12:15 PM 63.7 °F - 36.3 °F 36% 29.84 in 10.0 mi NW 13.8 mph - N/A   Clear
12:35 PM 63.0 °F - 36.7 °F 38% 29.86 in 10.0 mi NW 19.6 mph 26.5 mph N/A   Clear
12:55 PM 63.0 °F - 37.2 °F 38% 29.86 in 10.0 mi NW 18.4 mph 27.6 mph N/A   Clear
1:15 PM 63.5 °F - 37.2 °F 38% 29.87 in 10.0 mi NNW 18.4 mph 25.3 mph N/A   Clear
1:35 PM 63.1 °F - 37.8 °F 39% 29.88 in 10.0 mi North 20.7 mph 28.8 mph N/A   Clear
1:55 PM 63.1 °F - 38.7 °F 40% 29.89 in 10.0 mi North 24.2 mph 27.6 mph N/A   Clear
2:15 PM 63.1 °F - 38.3 °F 40% 29.90 in 10.0 mi North 25.3 mph 32.2 mph N/A   Clear
2:35 PM 61.5 °F - 37.9 °F 42% 29.92 in 10.0 mi NNW 19.6 mph 29.9 mph N/A   Clear
2:55 PM 59.5 °F - 37.4 °F 44% 29.94 in 10.0 mi NNW 21.9 mph 32.2 mph N/A   Clear
3:15 PM 58.5 °F - 37.4 °F 45% 29.96 in 10.0 mi NNW 21.9 mph 27.6 mph N/A   Clear
3:35 PM 58.1 °F - 37.8 °F 47% 29.98 in 10.0 mi NNW 24.2 mph 34.5 mph N/A   Clear
3:55 PM 56.7 °F - 37.8 °F 49% 30.00 in 10.0 mi North 24.2 mph 32.2 mph N/A   Clear
4:15 PM 55.2 °F - 37.6 °F 52% 30.03 in 10.0 mi North 23.0 mph 32.2 mph N/A   Clear
4:35 PM 54.0 °F - 37.4 °F 54% 30.04 in 10.0 mi NNW 23.0 mph - N/A   Clear
4:55 PM 53.1 °F - 36.5 °F 53% 30.06 in 10.0 mi North 24.2 mph 28.8 mph N/A   Clear
5:15 PM 52.5 °F - 36.5 °F 54% 30.08 in 10.0 mi NNW 17.3 mph 26.5 mph N/A   Clear
5:35 PM 50.7 °F - 35.8 °F 57% 30.10 in 10.0 mi North 15.0 mph - N/A   Clear
5:55 PM 50.2 °F - 35.1 °F 56% 30.12 in 10.0 mi NNW 13.8 mph - N/A   Clear
6:15 PM 49.1 °F - 35.1 °F 58% 30.13 in 10.0 mi NNW 11.5 mph - N/A   Clear
6:35 PM 46.9 °F - 34.7 °F 62% 30.14 in 10.0 mi NNW 9.2 mph - N/A   Clear
6:55 PM 46.2 °F 41.7 °F 34.9 °F 65% 30.15 in 10.0 mi NNW 9.2 mph - N/A   Clear
7:15 PM 46.6 °F - 32.9 °F 59% 30.16 in 10.0 mi NNW 12.7 mph - N/A   Clear
7:55 PM 44.4 °F 39.5 °F 31.8 °F 61% 30.17 in 10.0 mi NW 9.2 mph - N/A   Clear
8:15 PM 43.7 °F 38.6 °F 31.5 °F 62% 30.18 in 10.0 mi NW 9.2 mph - N/A   Clear
8:35 PM 42.6 °F 37.8 °F 31.1 °F 64% 30.19 in 10.0 mi NW 8.1 mph - N/A   Clear
8:55 PM 42.1 °F 37.1 °F 31.1 °F 65% 30.20 in 10.0 mi NNW 8.1 mph - N/A   Clear
9:15 PM 40.1 °F 34.7 °F 31.1 °F 70% 30.21 in 10.0 mi NNW 8.1 mph - N/A   Clear
9:35 PM 41.5 °F 35.9 °F 31.5 °F 67% 30.23 in 10.0 mi NNW 9.2 mph - N/A   Clear
9:55 PM 40.6 °F 34.8 °F 31.5 °F 70% 30.23 in 10.0 mi NW 9.2 mph - N/A   Clear
10:15 PM 39.6 °F 32.1 °F 31.1 °F 72% 30.24 in 10.0 mi NW 12.7 mph - N/A   Clear
10:35 PM 41.2 °F 34.5 °F 31.1 °F 67% 30.25 in 10.0 mi NNW 11.5 mph - N/A   Clear
10:55 PM 41.2 °F 35.0 °F 31.1 °F 67% 30.25 in 10.0 mi NW 10.4 mph - N/A   Clear
11:15 PM 41.2 °F 35.0 °F 31.1 °F 67% 30.25 in 10.0 mi NW 10.4 mph - N/A   Clear
11:35 PM 39.4 °F 33.2 °F 30.7 °F 71% 30.25 in 10.0 mi WNW 9.2 mph - N/A   Clear
11:55 PM 37.9 °F 31.5 °F 30.2 °F 74% 30.25 in 10.0 mi WNW 9.2 mph - N/A   Clear